Regional Weather Roundup
Issued by NWS

Home | Current Version | Previous Version | Text Only | Print | Product List | Glossary Off
Versions: 1 2 3 4 5 6 7 8 9 10 11 12 13 14 15 16 17 18 19 20 21 22 23 24 25 26 27 28 29 30 31 32 33 34 35 36 37 38 39 40 41 42 43 44 45 46 47 48 49 50

000
ASUS43 KBIS 280710
RWRND

NORTH DAKOTA REGIONAL WEATHER ROUNDUP
NATIONAL WEATHER SERVICE BISMARCK ND
200 AM CDT FRI JUL 28 2017

NOTE: "FAIR" INDICATES FEW OR NO CLOUDS BELOW 12,000 FEET WITH NO
SIGNIFICANT WEATHER AND/OR OBSTRUCTIONS TO VISIBILITY.


NDZ001>003-009>011-017-280800-
NORTHWEST NORTH DAKOTA

CITY           SKY/WX    TMP DP  RH WIND       PRES   REMARKS
WILLISTON      CLEAR     63  60  90 CALM      30.01S
MINOT          PTCLDY    69  60  73 SE9       30.03S
MINOT AFB      CLEAR     65  60  82 SE7       30.01F
$$

NDZ018>021-031>035-040>046-280800-
SOUTHWEST NORTH DAKOTA

CITY           SKY/WX    TMP DP  RH WIND       PRES   REMARKS
BISMARCK       CLOUDY    68  58  70 SE8       30.05S
DICKINSON      CLOUDY    60  59  96 SE5       30.04S
GARRISON         N/A     64  62  93 SE6       30.04S
HETTINGER ARPT CLOUDY    60  54  80 SE5       30.07F
$$

NDZ004>008-012>016-024-026-027-054-280800-
NORTHEAST NORTH DAKOTA

CITY           SKY/WX    TMP DP  RH WIND       PRES   REMARKS
GRAND FORKS    PTCLDY    63  61  93 CALM      30.05S
GRND FRKS AFB  PTCLDY    58  56  94 CALM      30.06S
DEVILS LAKE    PTCLDY    68  60  75 SE6       30.08S
$$

NDZ022-023-025-028>030-036>039-047>053-280800-
SOUTHEAST NORTH DAKOTA

CITY           SKY/WX    TMP DP  RH WIND       PRES   REMARKS
FARGO          CLEAR     64  61  90 CALM      30.06S
JAMESTOWN      CLEAR     62  58  86 CALM      30.07S
$$




USA.gov is the U.S. government's official web portal to all federal, state and local government web resources and services.